Regional Weather Roundup
Issued by NWS Charleston, WV

Home | Current Version | Previous Version | Graphics & Text | Print | Product List | Glossary On
Versions: 1 2 3 4 5 6 7 8 9 10 11 12 13 14 15 16 17 18 19 20 21 22 23 24 25 26 27 28 29 30 31 32 33 34 35 36 37 38 39 40 41 42 43 44 45 46 47 48 49 50
000
ASUS41 KRLX 241310
RWRRLX
CRWRWRRLX ALL
West Virginia Regional Weather Roundup
National Weather Service Charleston WV
Issued by National Weather Service Pittsburgh PA
900 AM EDT FRI MAR 24 2017

Note: "fair" indicates few or no clouds below 12,000 feet with no
significant weather and/or obstructions to visibility.

WVZ003-241400-
Northern Panhandle of West Virginia

CITY           SKY/WX    TMP DP  RH WIND       PRES   REMARKS
WHEELING       CLOUDY    47  33  58 S10       30.22S
$$

WVZ009-241400-
Northwest West Virginia

CITY           SKY/WX    TMP DP  RH WIND       PRES   REMARKS
PARKERSBURG    CLOUDY    54  30  40 S7        30.29R
$$

WVZ006-241400-
Western West Virginia

CITY           SKY/WX    TMP DP  RH WIND       PRES   REMARKS
HUNTINGTON     CLOUDY    56  33  42 S8        30.27R
$$

WVZ015-241400-
West Central West Virginia

CITY           SKY/WX    TMP DP  RH WIND       PRES   REMARKS
CHARLESTON     CLOUDY    57  33  40 S6        30.29R
$$

WVZ031-241400-
North Central West Virginia

CITY           SKY/WX    TMP DP  RH WIND       PRES   REMARKS
CLARKSBURG     CLOUDY    47  40  76 CALM      30.28F
MORGANTOWN     PTSUNNY   48  41  76 S3        30.28F
$$

WVZ035-042-241400-
South Central West Virginia

CITY           SKY/WX    TMP DP  RH WIND       PRES   REMARKS
BECKLEY        CLOUDY    48  30  49 S7        30.34S
BLUEFIELD      CLOUDY    50  31  48 CALM      30.36S
$$

WVZ045-241400-
Greenbrier Valley of West Virginia

CITY           SKY/WX    TMP DP  RH WIND       PRES   REMARKS
LEWISBURG      CLOUDY    37  25  60 CALM      30.38S
$$

WVZ047-241400-
Northern Mountains of West Virginia

CITY           SKY/WX    TMP DP  RH WIND       PRES   REMARKS
ELKINS         CLOUDY    44  32  62 W3        30.33R
$$

WVZ052-241400-
Eastern Panhandle of West Virginia

CITY           SKY/WX    TMP DP  RH WIND       PRES   REMARKS
MARTINSBURG    LGT RAIN  34  30  85 S5        30.39S FOG     WCI  30
PETERSBURG     CLOUDY    44  32  62 CALM      30.37S
$$



USA.gov is the U.S. government's official web portal to all federal, state and local government web resources and services.